This is the latest recevied weather packets stored in our database for station/object KC5DP. If no packets are shown the sender has not sent any weather packets the latest 10 day(s).
| Time | Temp. | Humidity | Pressure | Rain* | Wind** | Luminosity | Snow |
|---|---|---|---|---|---|---|---|
| 1777414651 | 28.89° C | 73% | 1013.1 hPa | 0 mm | - | 97 W/m² | - |
| 1777414346 | 28.89° C | 74% | 1013.4 hPa | 0 mm | - | 106 W/m² | - |
| 1777414041 | 28.89° C | 74% | 1013.2 hPa | 0 mm | - | 113 W/m² | - |
| 1777413741 | 28.89° C | 72% | 1013.2 hPa | 0 mm | - | 120 W/m² | - |
| 1777413437 | 28.89° C | 72% | 1013.2 hPa | 0 mm | - | 113 W/m² | - |
| 1777413134 | 28.89° C | 71% | 1013.2 hPa | 0 mm | - | 203 W/m² | - |
| 1777412829 | 28.89° C | 71% | 1013.2 hPa | 0 mm | - | 108 W/m² | - |
| 1777412528 | 28.89° C | 72% | 1013.1 hPa | 0 mm | - | 113 W/m² | - |
| 1777412226 | 29.44° C | 69% | 1013.6 hPa | 0 mm | - | 132 W/m² | - |
| 1777411923 | 29.44° C | 69% | 1013.5 hPa | 0 mm | - | 115 W/m² | - |
| 1777411621 | 29.44° C | 68% | 1013.4 hPa | 0 mm | - | 127 W/m² | - |
| 1777411316 | 29.44° C | 67% | 1013.6 hPa | 0 mm | - | 137 W/m² | - |
| 1777411015 | 29.44° C | 67% | 1013.8 hPa | 0 mm | - | 121 W/m² | - |
| 1777410715 | 29.44° C | 68% | 1013.8 hPa | 0 mm | - | 142 W/m² | - |
| 1777410410 | 29.44° C | 72% | 1013.9 hPa | 0 mm | - | 164 W/m² | - |
| 1777410108 | 29.44° C | 71% | 1013.8 hPa | 0 mm | - | 173 W/m² | - |
| 1777409803 | 30° C | 70% | 1013.8 hPa | 0 mm | - | 173 W/m² | - |
| 1777409499 | 29.44° C | 71% | 1013.8 hPa | 0 mm | - | 528 W/m² | - |
| 1777409195 | 30° C | 69% | 1013.9 hPa | 0 mm | - | 278 W/m² | - |
| 1777408892 | 30° C | 69% | 1014 hPa | 0 mm | - | 474 W/m² | - |
| 1777408588 | 30.56° C | 70% | 1013.9 hPa | 0 mm | - | 407 W/m² | - |
| 1777408284 | 31.11° C | 69% | 1014 hPa | 0 mm | - | 549 W/m² | - |
| 1777407984 | 30.56° C | 68% | 1014.1 hPa | 0 mm | - | 599 W/m² | - |
| 1777407682 | 30° C | 68% | 1014 hPa | 0 mm | - | 620 W/m² | - |
| 1777407382 | 29.44° C | 67% | 1013.9 hPa | 0 mm | - | 483 W/m² | - |
* Rain latest hour (hover to see other rain measurements)
** Current wind speed in m/s (hover to see current wind gust speed)